Location: 10033 Water Well
(34.0865°N, 106.8959°W)
Time: 18:56:04
(UTC+00:00)

SJ 16-02 - Pass Details

Date: 13 January 2026
Orbit: 583 x 594 km, 75.0° (Epoch: 11 February)

Event Time Altitude Azimuth Distance (km) Brightness Sun altitude
Rises 01:42:12 0° 330° (NNW) 2,819 4.9 -17.0°
Reaches altitude 10° 01:44:40 10° 318° (NW) 1,917 4.2 -17.5°
Maximum altitude 01:48:15 27° 261° (W) 1,157 3.6 -18.2°
Drops below altitude 10° 01:51:50 10° 204° (SSW) 1,912 4.4 -19.0°
Sets 01:54:18 0° 191° (SSW) 2,810 5.1 -19.5°
